Location: ????
(33.1659°N, 35.6604°E)
Time: 09:24:24
(UTC+00:00)

ADEOS Rocket - Pass Details

Date: 20 September 2019
Orbit: 859 x 1306 km, 98.7° (Epoch: 18 October)

Event Time Altitude Azimuth Distance (km) Brightness Sun altitude
Rises 16:52:51 0° 20° (NNE) 4,159 6.2 -16.5°
Reaches altitude 10° 16:55:37 10° 27° (NNE) 3,234 5.6 -17.0°
Maximum altitude 17:02:50 46° 99° (E) 1,674 3.8 -18.5°
Drops below altitude 10° 17:10:12 10° 170° (S) 3,310 5.5 -20.0°
Sets 17:13:02 0° 176° (S) 4,264 6.2 -20.6°
